Location: Saint-Palais-sur-Mer
(45.6429°N, 1.0859°W)
Time: 00:19:51
(UTC+01:00)

Tiros 1 despin weight - Pass Details

Date: 14 February 2026
Orbit: 556 x 593 km, 48.2° (Epoch: 13 March)

Event Time Altitude Azimuth Distance (km) Brightness Sun altitude
Rises 21:17:08 0° 285° (WNW) 2,734 ? -29.7°
Reaches altitude 10° 21:19:24 10° 288° (WNW) 1,840 ? -30.1°
Enters shadow 21:21:31 29° 293° (WNW) 1,046 ? -30.5°
Maximum altitude 21:23:35 74° 13° (NNE) 584 - -30.8°
Drops below altitude 10° 21:27:49 10° 99° (E) 1,850 - -31.5°
Sets 21:30:05 0° 101° (ESE) 2,751 - -31.9°
